Погода во Владимировском

Украина / Днепропетровская область     48°10′14″N   35°30′34″E
темп.,
°C
ветер,
м/с
пор.,
м/с
влажн.,
%
обл.,
%
осадки,
мм/ч
давл.,
гПа
погр.,
м
18 января, пн
пн1823:00−13с4695100 1.0 1015302
02:00−12ссв4695100 2.1 1015291
05:00−13с3596100 0.2 1015177
08:00−14с3695100 0.4 1017224
11:00−12с239194 0.1 1017298
14:00−11зсз239197 0.2 1016323
17:00−13сз2396100 0.4 101884
20:00−15сз2395100 0.4 101839
19 января, вт
вт1923:00−17зсз239793 0.0 101921
02:00−16зсз339797 0.0 102062
05:00−18зсз339860 0.0 102024
08:00−17зсз359870 0.1 1021129
11:00−13зсз248892 0.0 1022343
14:00−12зсз358895 0.1 1020644
17:00−14з2394100 0.1 102234
20:00−16з239597 0.1 102320
20 января, ср
ср2023:00−17зюз229620 0.0 102320
02:00−17зюз239610 0.0 102420
05:00−18юз22960 0.0 102420
08:00−18юз22940 0.0 102520
11:00−13ююз23880 0.0 1025225
14:00−11ююз238624 0.0 1025330
17:00−14ююв239119 0.0 102620
20:00−15юв449310 0.0 102662
21 января, чт
чт2123:00−15ююв44880 0.0 102666
02:00−13юв468816 0.0 102688
05:00−11юв489527 0.0 1025123
08:00−9ююв499652 0.1 1025149
11:00−3ююв6109499 0.1 1025317
14:000ю6109599 0.2 1024431
17:000ю61196100 0.0 1023378
20:000ю6109794 0.0 1023351
22 января, пт
пт2223:00+1ююз61198100 0.0 1022384
02:00+1ююз5119896 0.0 1022312
05:00+1ююз61198100 0.0 1021356
08:00+2ююз71398100 0.0 1021387
11:00+2ююз61410093 0.0 1021381
14:00+2ююз61210086 0.0 1019358
17:00+1ю5129398 0.0 1019260
20:00+2ю6129597 0.0 1018282